#timestamp,LO_Frequency,Hit,StdDev 
1675605615.1,286046998.2,N
1675605616.0,286046998.2,N
1675605635.8,286046998.3,N
1675605655.6,286046999.4,N
1675605675.5,286047001.2,N
1675605695.3,286047001.1,N
1675605715.1,286046998.1,N
1675605735.9,286047000.9,N
1675605755.7,286047002.8,N
1675605775.5,286047002.2,N
1675605795.4,286047000.5,N
1675605815.2,286047000.6,N
1675605835.0,286046999.8,N
1675605835.9,286046999.8,N
1675605855.8,286046998.1,N
1675605875.6,286047000.8,N
1675605895.4,286047001.1,N
1675605915.3,286047000.9,N
1675605935.1,286047002.3,N
1675605955.8,286047000.8,N
1675605975.7,286047001.2,N
1675605995.5,286046999.2,N
1675606015.3,286046996.5,N
1675606035.2,286046999.1,N
1675606055.0,286046996.6,N
1675606055.9,286046996.6,N
1675606075.7,286046999.6,N
1675606095.6,286047000.4,N
1675606115.4,286047001.0,N
1675606135.2,286046999.9,N
1675606155.1,286047000.6,N
1675606156.0,286047000.6,N
1675606175.8,286046999.7,N
1675606195.7,286047002.8,N
1675606215.5,286047001.4,N
1675606235.3,286047002.2,N
1675606255.1,286047001.1,N
1675606275.9,286047000.4,N
1675606295.7,286046998.1,N
1675606315.5,286047000.4,N
1675606335.4,286046999.7,N
1675606355.2,286047002.3,N
1675606375.0,286047000.7,N
1675606376.0,286047000.7,N
1675606395.8,286046999.9,N
1675606415.6,286046998.3,N
1675606435.4,286046999.7,N
1675606455.3,286047002.3,N
1675606475.1,286047002.2,N
1675606495.8,286047000.6,N
1675606515.7,286047000.9,N
1675606535.5,286047001.5,N
1675606555.3,286046996.9,N
1675606575.2,286046998.8,N
1675606595.0,286046999.7,N
1675606595.9,286046999.7,N
1675606615.7,286047001.8,N
1675606635.6,286047001.8,N
1675606655.4,286047002.0,N
1675606675.2,286047003.8,N
1675606695.1,286047001.5,N
1675606696.0,286047001.5,N
1675606715.8,286046999.5,N
1675606735.6,286047000.8,N
1675606755.5,286047000.0,N
1675606775.3,286047001.7,N
1675606795.1,286047001.4,N
1675606815.9,286047007.0,Y
1675606835.7,286047009.6,P
1675606855.6,286047006.4,N
1675606875.4,286047006.3,N
1675606895.2,286047009.2,N
1675606915.1,286047009.2,N
1675606916.0,286047009.2,N
1675606935.8,286047006.9,N
1675606955.6,286047009.2,Y
1675606975.5,286047002.9,P
1675606995.3,286047005.8,N
1675607015.1,286047004.1,N
1675607035.9,286047001.2,N
1675607055.7,286047002.2,N
1675607075.5,286047007.1,Y
1675607095.4,286047000.5,P
1675607115.2,286046999.4,N
1675607135.0,286047000.2,N
1675607135.9,286047000.2,N
1675607155.8,286047002.6,N
1675607175.6,286046999.9,N
1675607195.4,286047000.4,N
1675607215.3,286047002.5,N
1675607235.1,286047001.9,N
1675607255.8,286046999.6,N
1675607275.7,286047007.5,Y
1675607295.5,286047003.8,P
1675607315.3,286047003.8,N
1675607335.2,286047003.6,N
1675607355.0,286047004.7,Y
1675607355.9,286047004.7,P
1675607375.8,286047005.5,P
1675607395.6,286047005.1,P
1675607415.4,286047006.9,Y
1675607435.3,286047002.1,P
1675607455.1,286047001.0,N
1675607456.0,286047001.0,N
1675607475.8,286047000.9,N
1675607495.7,286046998.5,N
1675607515.5,286047000.0,N
1675607535.3,286047000.5,N
1675607555.2,286047000.6,N
1675607575.9,286047004.4,N
1675607595.7,286046999.7,N
1675607615.6,286047001.3,N
1675607635.4,286047001.3,N
1675607655.2,286047003.0,N
1675607675.1,286047002.1,N
1675607676.0,286047002.1,N
1675607695.8,286047001.3,N
1675607715.6,286047002.9,N
1675607735.5,286047006.2,Y
1675607755.3,286047005.4,P
1675607775.1,286047005.1,N
1675607795.9,286047006.5,P
1675607815.7,286047003.4,N
1675607835.5,286047010.6,Y
1675607855.4,286047001.3,P
1675607875.2,286047001.8,N
1675607895.0,286047002.1,N
1675607895.9,286047002.1,N
1675607915.8,286047004.3,Y
1675607935.6,286047000.4,P
1675607955.5,286047000.2,N
1675607975.3,286047004.1,P
1675607995.1,286047003.3,N
1675608015.9,286047003.1,N
1675608035.7,286047003.0,N
1675608055.5,286047009.2,Y
1675608075.4,286047003.5,P
1675608095.2,286047003.3,P
1675608115.0,286047004.5,P
1675608115.9,286047004.5,Y
1675608135.8,286047004.4,P
1675608155.6,286047003.5,P
1675608175.4,286047004.1,P
1675608195.3,286047004.1,Y
1675608215.1,286046999.9,P
1675608235.8,286047000.2,N
1675608255.7,286047000.9,N
1675608275.5,286047000.1,N
1675608295.3,286047000.1,N
1675608315.2,286047002.4,N
1675608335.0,286047003.6,N
1675608335.9,286047003.6,N
1675608355.7,286047002.9,N
1675608375.6,286047003.3,N
1675608395.4,286047003.2,N
1675608415.3,286047007.5,Y
1675608435.1,286047003.2,P
1675608436.0,286047003.2,P
1675608455.8,286047004.4,P
1675608475.7,286047006.0,Y
1675608495.5,286047000.4,P
1675608515.3,286047000.5,N
1675608535.2,286047003.8,N
1675608555.9,286047002.6,N
1675608575.7,286047001.7,N
1675608595.6,286047003.7,N
1675608615.4,286047001.8,N
1675608635.2,286047003.1,N
1675608655.1,286047003.1,N
1675608656.0,286047003.1,N
1675608675.8,286047001.8,N
1675608695.6,286047003.7,Y
1675608715.5,286047001.9,P
1675608735.3,286047003.3,P
1675608755.1,286047005.8,P
1675608775.9,286047003.2,N
1675608795.7,286047007.5,Y
1675608815.5,286047001.8,P
1675608835.4,286047003.8,P
1675608855.2,286047003.5,P
1675608875.0,286047006.0,Y
1675608875.9,286047006.0,P
1675608895.8,286047001.6,N
1675608915.6,286047002.0,N
1675608935.4,286047004.3,N
1675608955.3,286047003.2,N
1675608975.1,286047001.5,N
1675608995.8,286047001.9,N
1675609015.7,286047001.6,N
1675609035.5,286047003.5,N
1675609055.3,286047005.6,Y
1675609075.2,286047001.5,P
1675609095.0,286047001.4,N
1675609095.9,286047001.4,N
1675609115.8,286047004.6,Y
1675609135.6,286047003.6,P
1675609155.4,286047005.7,P
1675609175.3,286047007.6,P
1675609195.1,286047005.8,N
1675609196.0,286047005.8,N
